Location: Usti nad Orlici
(49.9830°N, 16.4000°E)
Time: 07:47:04
(UTC+02:00)

ISS - Pass Details

Date: 24 March 2019
Orbit: 408 x 410 km, 51.6° (Epoch: 26 April)

Event Time Altitude Azimuth Distance (km) Brightness Sun altitude
Rises 19:26:24 0° 232° (SW) 2,328 0.5 -12.4°
Reaches altitude 10° 19:28:31 10° 226° (SW) 1,469 -0.6 -12.7°
Maximum altitude 19:31:41 46° 152° (SSE) 563 -3.5 -13.2°
Enters shadow 19:33:13 25° 93° (E) 865 -2.7 -13.4°
